Change the Weather History Date:

Friday, November 9, 2012

  Actual Average Record
Temperature  
Mean Temperature 54 °F -  
Max Temperature 68 °F 57 °F 78 °F (1975)
Min Temperature 41 °F 39 °F 11 °F (1991)
Degree Days  
Heating Degree Days 10    
Growing Degree Days 4 (Base 50)    
Moisture  
Dew Point 41 °F    
Average Humidity 58    
Maximum Humidity 75    
Minimum Humidity 42    
Precipitation  
Precipitation 0.00 in - - ()
Sea Level Pressure  
Sea Level Pressure 30.06 in    
Wind  
Wind Speed 8 mph (SSE)    
Max Wind Speed 17 mph    
Max Gust Speed 24 mph    
Visibility 10 miles    
Events      
Averages and records for this station are not official NWS values.
T = Trace of Precipitation, MM = Missing Value Source: NWS Daily Summary

Daily Weather History Graph

Daily Weather History Graph

Search for Another Location

Airport or City:

Trip Planner

Search our weather history database for the weather conditions in past years. The results will help you decide how hot, cold, wet, or windy it might be!

Date:

Astronomy

Nov. 09, 2012 Rise Set
Actual Time 6:31 AM CST 4:47 PM CST
Civil Twilight 6:03 AM CST 5:15 PM CST
Nautical Twilight 5:32 AM CST 5:46 PM CST
Astronomical Twilight 5:00 AM CST 6:18 PM CST
Moon 1:33 AM CST (11/9) 1:57 PM CST (11/9)
Length of Visible Light 11h 11m
Length of Day
10h 15m
Waning Crescent, 23% of the Moon is Illuminated
Nov 9
Waning Crescent
Nov 13
New
Nov 20
First Quarter
Nov 28
Full
Dec 6
Last Quarter

Hourly Weather History & Observations

Time (CST) Temp. Windchill Dew Point Humidity Pressure Visibility Wind Dir Wind Speed Gust Speed Precip Events Conditions
12:15 AM 44.4 °F 42.9 °F 34.2 °F 67% 30.11 in 10.0 mi SSE 3.5 mph - N/A   Clear
12:35 AM 44.2 °F 42.7 °F 34.2 °F 68% 30.12 in 10.0 mi SSE 3.5 mph - N/A   Clear
12:55 AM 44.4 °F 42.9 °F 34.2 °F 67% 30.12 in 10.0 mi SSE 3.5 mph - N/A   Clear
1:15 AM 44.6 °F 43.1 °F 34.0 °F 66% 30.12 in 10.0 mi SSE 3.5 mph - N/A   Clear
1:35 AM 44.1 °F - 33.8 °F 67% 30.12 in 10.0 mi Calm Calm - N/A   Clear
1:55 AM 41.7 °F 39.8 °F 33.8 °F 73% 30.12 in 10.0 mi SSE 3.5 mph - N/A   Clear
2:15 AM 43.2 °F 41.5 °F 34.0 °F 70% 30.12 in 10.0 mi SE 3.5 mph - N/A   Clear
2:35 AM 43.2 °F 41.5 °F 34.2 °F 71% 30.12 in 10.0 mi ESE 3.5 mph - N/A   Clear
2:55 AM 42.8 °F 41.1 °F 34.2 °F 72% 30.12 in 10.0 mi ESE 3.5 mph - N/A   Clear
3:15 AM 42.1 °F 39.2 °F 34.2 °F 74% 30.12 in 10.0 mi ESE 4.6 mph - N/A   Clear
3:35 AM 42.1 °F 39.2 °F 34.0 °F 73% 30.12 in 10.0 mi ESE 4.6 mph - N/A   Clear
3:55 AM 42.1 °F 39.2 °F 34.0 °F 73% 30.12 in 10.0 mi SE 4.6 mph - N/A   Clear
4:15 AM 42.1 °F 37.7 °F 34.2 °F 74% 30.12 in 10.0 mi ESE 6.9 mph - N/A   Clear
4:35 AM 41.7 °F 39.8 °F 34.2 °F 75% 30.13 in 10.0 mi SE 3.5 mph - N/A   Clear
5:15 AM 41.9 °F 39.0 °F 34.2 °F 74% 30.12 in 7.0 mi SE 4.6 mph - N/A   Clear
5:35 AM 41.9 °F 38.2 °F 34.3 °F 75% 30.12 in 7.0 mi SE 5.8 mph - N/A   Clear
5:55 AM 42.8 °F 40.1 °F 33.8 °F 70% 30.12 in 10.0 mi SE 4.6 mph - N/A   Clear
6:15 AM 41.9 °F 38.2 °F 34.3 °F 75% 30.11 in 7.0 mi SE 5.8 mph - N/A   Clear
6:35 AM 41.9 °F 39.0 °F 34.2 °F 74% 30.11 in 10.0 mi SE 4.6 mph - N/A   Clear
6:55 AM 42.1 °F 39.2 °F 34.3 °F 74% 30.12 in 7.0 mi SE 4.6 mph - N/A   Clear
7:15 AM 42.6 °F 39.9 °F 34.7 °F 74% 30.12 in 7.0 mi SE 4.6 mph - N/A   Clear
7:35 AM 43.7 °F 40.3 °F 34.9 °F 71% 30.12 in 10.0 mi SE 5.8 mph - N/A   Clear
7:55 AM 45.5 °F 42.5 °F 35.4 °F 68% 30.12 in 10.0 mi SE 5.8 mph - N/A   Clear
8:15 AM 47.7 °F - 36.0 °F 64% 30.12 in 10.0 mi SSE 8.1 mph - N/A   Clear
8:35 AM 50.5 °F - 37.2 °F 60% 30.12 in 10.0 mi SSE 8.1 mph - N/A   Scattered Clouds
8:55 AM 53.6 °F - 37.4 °F 54% 30.12 in 10.0 mi South 8.1 mph - N/A   Scattered Clouds
9:15 AM 54.7 °F - 36.9 °F 51% 30.11 in 10.0 mi SSE 9.2 mph 17.3 mph N/A   Clear
9:35 AM 56.3 °F - 37.4 °F 49% 30.10 in 10.0 mi South 12.7 mph 19.6 mph N/A   Clear
9:55 AM 57.6 °F - 37.9 °F 48% 30.10 in 10.0 mi South 13.8 mph 18.4 mph N/A   Scattered Clouds
10:15 AM 58.6 °F - 38.1 °F 46% 30.10 in 10.0 mi South 12.7 mph - N/A   Scattered Clouds
10:35 AM 59.5 °F - 38.3 °F 45% 30.10 in 10.0 mi South 10.4 mph - N/A   Scattered Clouds
10:55 AM 60.8 °F - 39.4 °F 45% 30.08 in 10.0 mi South 11.5 mph 18.4 mph N/A   Clear
11:15 AM 62.4 °F - 40.6 °F 45% 30.07 in 10.0 mi South 10.4 mph 17.3 mph N/A   Clear
11:35 AM 63.7 °F - 41.9 °F 45% 30.06 in 10.0 mi SSW 17.3 mph 24.2 mph N/A   Clear
11:55 AM 64.4 °F - 41.4 °F 43% 30.05 in 10.0 mi South 13.8 mph 21.9 mph N/A   Clear
12:15 PM 65.5 °F - 42.3 °F 43% 30.03 in 10.0 mi South 17.3 mph 21.9 mph N/A   Clear
12:35 PM 66.2 °F - 43.0 °F 43% 30.01 in 10.0 mi South 17.3 mph 21.9 mph N/A   Clear
12:55 PM 67.1 °F - 43.2 °F 42% 30.01 in 10.0 mi South 13.8 mph 20.7 mph N/A   Clear
1:15 PM 67.1 °F - 43.7 °F 43% 30.01 in 10.0 mi South 13.8 mph 21.9 mph N/A   Clear
1:35 PM 68.0 °F - 44.2 °F 42% 30.01 in 10.0 mi South 15.0 mph 20.7 mph N/A   Clear
1:55 PM 68.2 °F - 44.6 °F 43% 30.00 in 10.0 mi South 16.1 mph 21.9 mph N/A   Clear
2:15 PM 68.5 °F - 44.6 °F 42% 30.00 in 10.0 mi South 11.5 mph - N/A   Clear
2:35 PM 68.9 °F - 45.3 °F 43% 29.99 in 10.0 mi South 15.0 mph 18.4 mph N/A   Mostly Cloudy
2:55 PM 68.9 °F - 45.1 °F 42% 29.99 in 10.0 mi South 12.7 mph 17.3 mph N/A   Scattered Clouds
3:15 PM 68.9 °F - 45.7 °F 43% 29.99 in 10.0 mi South 12.7 mph 20.7 mph N/A   Clear
3:35 PM 68.9 °F - 45.7 °F 43% 29.98 in 10.0 mi South 13.8 mph - N/A   Clear
3:55 PM 68.5 °F - 45.5 °F 44% 29.98 in 10.0 mi South 8.1 mph 18.4 mph N/A   Clear
4:15 PM 67.6 °F - 45.5 °F 45% 29.98 in 10.0 mi South 12.7 mph 17.3 mph N/A   Clear
4:35 PM 66.9 °F - 46.4 °F 48% 29.98 in 10.0 mi South 12.7 mph 18.4 mph N/A   Clear
4:55 PM 66.6 °F - 46.4 °F 48% 29.98 in 10.0 mi South 10.4 mph 17.3 mph N/A   Clear
5:15 PM 65.3 °F - 47.1 °F 52% 29.98 in 10.0 mi South 11.5 mph 16.1 mph N/A   Clear
5:35 PM 64.9 °F - 47.7 °F 54% 29.99 in 10.0 mi South 11.5 mph 17.3 mph N/A   Clear
5:55 PM 64.9 °F - 48.2 °F 55% 29.99 in 10.0 mi South 11.5 mph - N/A   Clear
6:15 PM 64.8 °F - 48.4 °F 55% 29.99 in 10.0 mi South 15.0 mph 19.6 mph N/A   Clear
6:35 PM 64.6 °F - 48.4 °F 56% 29.99 in 10.0 mi South 10.4 mph - N/A   Clear
6:55 PM 64.4 °F - 48.4 °F 56% 29.99 in 10.0 mi South 15.0 mph 20.7 mph N/A   Clear
7:15 PM 64.4 °F - 48.4 °F 56% 29.99 in 10.0 mi South 12.7 mph 20.7 mph N/A   Clear
7:35 PM 63.9 °F - 48.2 °F 57% 29.99 in 10.0 mi South 12.7 mph 21.9 mph N/A   Clear
7:55 PM 63.5 °F - 47.7 °F 56% 30.00 in 10.0 mi South 11.5 mph 17.3 mph N/A   Clear
8:15 PM 63.1 °F - 47.5 °F 57% 30.01 in 10.0 mi South 13.8 mph 19.6 mph N/A   Clear
8:35 PM 62.2 °F - 47.7 °F 59% 30.01 in 10.0 mi South 12.7 mph 17.3 mph N/A   Clear
8:55 PM 61.7 °F - 48.2 °F 61% 30.01 in 10.0 mi South 11.5 mph 16.1 mph N/A   Clear
9:15 PM 61.3 °F - 48.4 °F 62% 30.01 in 10.0 mi South 11.5 mph - N/A   Clear
9:35 PM 60.6 °F - 48.4 °F 64% 30.01 in 10.0 mi South 10.4 mph - N/A   Clear
9:55 PM 60.1 °F - 48.4 °F 65% 30.01 in 10.0 mi South 10.4 mph - N/A   Clear
10:15 PM 59.9 °F - 48.6 °F 66% 30.01 in 10.0 mi South 10.4 mph - N/A   Clear
10:35 PM 59.2 °F - 48.7 °F 68% 30.03 in 10.0 mi South 9.2 mph - N/A   Clear
10:55 PM 58.6 °F - 48.7 °F 70% 30.03 in 10.0 mi South 9.2 mph - N/A   Clear
11:15 PM 60.1 °F - 48.6 °F 66% 30.02 in 10.0 mi SSW 12.7 mph - N/A   Clear
11:35 PM 60.6 °F - 47.7 °F 62% 30.02 in 10.0 mi SSW 13.8 mph - N/A   Clear
11:55 PM 61.0 °F - 45.7 °F 57% 30.03 in 10.0 mi SSW 16.1 mph - N/A   Clear